Weather Roundup
Issued by NWS

Home | Current Version | Previous Version | Graphics & Text | Print | Product List | Glossary Off
Versions: 1 2 3 4 5 6 7 8 9 10 11 12 13 14 15 16 17 18 19 20 21 22 23 24 25 26 27 28 29 30 31 32 33 34 35 36 37 38 39 40 41 42 43 44 45 46 47 48 49 50

000
NZUS93 KARX 190559
HRRWXR

CURRENT HOURLY OBSERVATIONS ACROSS
MUCH OF THE UPPER MISSISSIPPI VALLEY
NATIONAL WEATHER SERVICE LA CROSSE WI
100 AM CDT SAT APR 19 2014


...SOUTHEAST MINNESOTA...


CITY           SKY/WX    TMP DP  RH WIND       PRES   REMARKS
ROCHESTER      FAIR      42  29  59 SE15      30.21S
ROCHESTER/MAYO FAIR      44  26  50 E14G20    30.21S
WINONA         FAIR      43  30  61 S3        30.26S
AUSTIN         FAIR      43  32  65 SE9       30.19R
ALBERT LEA     FAIR      46  34  61 SE16      30.16S
DODGE CENTER   FAIR      43  34  70 SE12      30.19S
PRESTON        FAIR      44  30  57 SE8       30.23R
OWATONNA       FAIR      45  30  57 SE13G18   30.17S
FARIBAULT      FAIR      46  27  46 SE15      30.17S
$$

...ELSEWHERE IN MINNESOTA...


CITY           SKY/WX    TMP DP  RH WIND       PRES   REMARKS
MINNEAPOLIS    MOCLDY    44  27  51 E15       30.18F
INTNL FALLS    CLOUDY    37  18  46 SE14      30.20F WCI  28
DULUTH         FAIR      31  22  69 E17       30.26F WCI  19
RED WING       FAIR      46  27  46 E9        30.22R
REDWOOD FALLS  FAIR      46  33  60 SE18      30.03F
MANKATO        FAIR      45  34  65 SE16      30.13S
WORTHINGTON    FAIR      48  30  49 SE17G25   30.02F
FAIRMONT       FAIR      48  28  46 SE18      30.11S
$$

...SOUTHWEST WISCONSIN...


CITY           SKY/WX    TMP DP  RH WIND       PRES   REMARKS
LA CROSSE      FAIR      47  27  45 SE13      30.28R
PRAIRIE DU CHI FAIR      46  30  52 E12G21    30.28R
BOSCOBEL       FAIR      45  32  60 VRB5      30.31R
LONE ROCK      NOT AVBL
PLATTEVILLE    FAIR      39  33  79 E14       30.32R WCI  31
FORT MC COY    FAIR      42  29  60 E5        30.30S
VIROQUA        FAIR      42  29  61 SE13      30.27R
WIS DELLS      FAIR      36  28  72 SE10G17   30.35R WCI  28
$$

...ELSEWHERE IN WISCONSIN...


CITY           SKY/WX    TMP DP  RH WIND       PRES   REMARKS
MILWAUKEE      FAIR      35  28  75 NE8       30.40S WCI  29
MADISON        FAIR      35  26  69 E9        30.37S WCI  28
GREEN BAY      FAIR      33  27  78 E8        30.40S WCI  26
EAU CLAIRE     NOT AVBL
BLACK RVR FLS  FAIR      41  28  57 E5        30.29S
MEDFORD        FAIR      36  25  65 E10G16    30.32S WCI  29
WAUSAU         FAIR      35  27  72 E9        30.34R WCI  28
WIS RAPIDS     FAIR      36  27  69 SE9       30.37R WCI  29
MARSHFIELD     FAIR      38  28  67 SE12      30.33R WCI  30
RICE LAKE      FAIR      40  22  49 E8        30.28F WCI  34
$$

...NORTHEAST IOWA...


CITY           SKY/WX    TMP DP  RH WIND       PRES   REMARKS
WATERLOO       FAIR      48  31  51 SE15      30.21S
DUBUQUE        FAIR      41  34  76 SE10      30.30R
DECORAH        MOCLDY    45  28  53 SE9       30.23S
MASON CITY     FAIR      43  33  68 SE10      30.18S
CHARLES CITY   FAIR      46  30  53 SE14      30.21R
OELWEIN        FAIR     N/A N/A N/A SE14G20   30.24S
$$

...ELSEWHERE IN IOWA...


CITY           SKY/WX    TMP DP  RH WIND       PRES   REMARKS
DES MOINES     FAIR      53  34  48 SE10      30.18S
IOWA CITY      FAIR      44  33  65 SE5       30.28R
FORT DODGE     FAIR      52  34  50 SE14G21   30.14S
MARSHALLTOWN   FAIR      49  31  49 SE12      30.20S
CEDAR RAPIDS   FAIR      44  32  62 E10       30.24R
$$

...NORTHERN ILLINOIS...


CITY           SKY/WX    TMP DP  RH WIND       PRES   REMARKS
CHICAGO-OHARE  FAIR      38  25  59 NE7       30.37S WCI  33
DUPAGE         FAIR      36  26  67 NE8       30.35F WCI  30
CHICAGO-MIDWAY FAIR      41  26  55 NE13      30.36F
MOLINE         FAIR      44  34  67 E16       30.32R
ROCKFORD       FAIR      37  27  67 E7        30.38R WCI  32
STERLING       FAIR      37  28  70 E14       30.34S WCI  29
PEORIA         FAIR      44  33  65 E15       30.32R
$$

NOTE: "FAIR" INDICATES FEW OR NO CLOUDS BELOW 12,000 FEET WITH NO
SIGNIFICANT WEATHER AND/OR OBSTRUCTIONS TO VISIBILITY. WIND
SPEEDS ARE IN MILES-PER-HOUR.



USA.gov is the U.S. government's official web portal to all federal, state and local government web resources and services.